Find OneWeb SL0368

NORAD ID: 49294 Int'l Des: 2021-090 Owner: ONEWEBN Country: UK Constellation: oneweb operational
LEOCIRCULARPOLARONEWEB_TYPE

实时位置

正在加载3D地球...

关于 OneWeb SL0368

正在加载描述...

即将过境

Passes for default location (London). Set your location on the main map for personalized predictions.

高度历史

Loading altitude history...

两行轨道根数

1 49294U 21090R 26126.39423338 -.00000076 00000-0 -21883-3 0 9992
2 49294 87.9141 282.7922 0002491 88.6710 271.4708 13.20769045225463
Epoch: May 6, 2026 • Age: 11 hours

当前状态

高度 1205.7 km
速度 7.25 km/s
星下点 -57.71°S, 113.54°E
发射日期 Oct 14, 2021
运行时间 4.5 years
类型 internet

技术详情

分类 Payload
质量 148.00 kg
干质量 140.00 kg
总质量 148.00 kg
长度 1.30 m
直径 1.00 m
跨度 5.00 m
形状 Trapezoid+2 pan
制造商 ONEWUS
平台类型 ARROW
阶段状态 In Orbit
所有者/国家 ONEWEBN/UK

Most Searched